Location: Mercogliano
(40.9167°N, 14.7333°E)
Time: 06:40:14
(UTC+00:00)

Cosmos 1627 Rocket - Pass Details

Date: 18 September 2020
Orbit: 951 x 1003 km, 82.9° (Epoch: 26 October)

Event Time Altitude Azimuth Distance (km) Brightness Sun altitude
Rises 19:44:36 0° 351° (N) 3,731 8.1 -29.5°
Reaches altitude 10° 19:47:08 10° 351° (N) 2,781 7.3 -29.9°
Maximum altitude 19:53:32 81° 265° (W) 1,020 4.5 -31.0°
Enters shadow 19:53:35 81° 258° (WSW) 1,020 4.5 -31.0°
